FW3045 Weather Reports


time (UTC)temp
C
wind
direction
speed
KPH
gust
KPH
rain 1hr
cm
rain 24hr
cm
rain mn
cm
humidity
%
barometer
mb
20260508014510 18 104 1.6 6.4 0.00 0.10 0.08 53 1011.1
20260508013008 18 98 0.0 3.2 0.00 0.10 0.08 53 1011.1
20260508011509 18 134 0.0 4.8 0.00 0.10 0.08 54 1011.1
20260508010010 18 147 1.6 8.0 0.00 0.10 0.08 50 1011.1
20260508004508 19 153 3.2 9.7 0.00 0.10 0.08 48 1011.2
20260508003007 19 198 3.2 11.3 0.00 0.10 0.08 48 1011.3
20260508001506 20 135 4.8 11.3 0.00 0.10 0.08 49 1011.4
20260508000006 20 213 3.2 14.5 0.00 0.10 0.08 47 1011.6
20260507234507 20 105 0.0 9.7 0.00 0.10 0.08 48 1011.6
20260507233008 20 105 1.6 16.1 0.00 0.10 0.08 50 1011.6
20260507231504 20 214 4.8 12.9 0.00 0.10 0.08 50 1011.7
20260507230005 19 109 0.0 6.4 0.00 0.10 0.08 51 1011.9
20260507224505 19 72 1.6 12.9 0.00 0.10 0.08 49 1012.1
20260507223002 18 199 4.8 9.7 0.00 0.10 0.08 54 1012.2
20260507221503 17 182 3.2 14.5 0.00 0.10 0.08 61 1012.3
20260507220002 17 171 4.8 12.9 0.00 0.10 0.08 64 1012.3
20260507214607 17 236 1.6 9.7 0.00 0.10 0.08 61 1012.5
20260507213103 18 276 0.0 9.7 0.00 0.10 0.08 54 1012.6
20260507211614 19 212 1.6 8.0 0.00 0.10 0.08 50 1012.6
20260507210106 20 210 4.8 8.0 0.00 0.10 0.08 49 1012.6
20260507204558 20 243 0.0 4.8 0.00 0.10 0.08 50 1012.6
20260507203106 19 251 1.6 11.3 0.00 0.10 0.08 53 1012.8
20260507201559 19 214 3.2 8.0 0.00 0.10 0.08 50 1012.9
20260507200105 18 98 1.6 9.7 0.00 0.10 0.08 56 1012.9
20260507194553 18 203 4.8 12.9 0.00 0.10 0.08 52 1013.0
20260507193048 17 250 1.6 8.0 0.00 0.10 0.08 54 1013.1
20260507191541 16 257 6.4 14.5 0.00 0.10 0.08 55 1013.3
20260507190040 16 233 6.4 12.9 0.00 0.10 0.08 57 1013.5
20260507184543 16 271 6.4 11.3 0.00 0.10 0.08 58 1013.5
20260507183037 16 267 4.8 14.5 0.00 0.10 0.08 60 1013.5
20260507181537 16 214 6.4 16.1 0.00 0.10 0.08 60 1013.4
20260507180039 16 199 0.0 6.4 0.00 0.10 0.08 66 1013.3
20260507174534 15 335 1.6 6.4 0.00 0.10 0.08 68 1013.4
20260507173032 14 46 0.0 4.8 0.00 0.10 0.08 75 1013.3
20260507171524 13 93 0.0 6.4 0.00 0.10 0.08 80 1013.5
20260507170120 12 141 0.0 3.2 0.00 0.10 0.08 85 1013.7
20260507164522 12 199 0.0 1.6 0.00 0.10 0.08 85 1013.9
20260507163017 11 13 0.0 0.0 0.00 0.10 0.08 86 1014.1
20260507161519 11 349 0.0 4.8 0.00 0.10 0.08 84 1014.2
20260507160016 12 277 0.0 3.2 0.00 0.10 0.08 85 1014.2
20260507154514 12 316 0.0 0.0 0.00 0.10 0.08 86 1013.9
20260507153011 11 243 0.0 0.0 0.00 0.10 0.08 87 1013.5
20260507151511 11 243 0.0 0.0 0.00 0.10 0.08 87 1013.5
20260507150020 11 242 0.0 0.0 0.00 0.10 0.08 88 1013.4
20260507144520 10 242 0.0 0.0 0.00 0.10 0.08 89 1013.3
20260507143006 10 247 0.0 1.6 0.00 0.10 0.08 90 1013.1
20260507141504 10 214 0.0 0.0 0.00 0.10 0.08 91 1012.9
20260507140005 10 243 0.0 0.0 0.00 0.10 0.08 91 1012.9
20260507134502 9 247 0.0 0.0 0.00 0.10 0.08 92 1012.8
20260507133134 9 247 0.0 0.0 0.00 0.10 0.08 92 1012.4
20260507131559 9 247 0.0 0.0 0.00 0.10 0.08 93 1012.3
20260507130109 8 247 0.0 0.0 0.00 0.10 0.08 93 1012.3
20260507124557 8 247 0.0 0.0 0.00 0.10 0.08 92 1012.1
20260507123056 9 255 0.0 0.0 0.00 0.10 0.08 91 1011.9
20260507121606 9 256 0.0 1.6 0.00 0.10 0.08 91 1011.9
20260507120059 9 227 0.0 3.2 0.00 0.10 0.08 90 1011.8
20260507114633 10 213 1.6 8.0 0.00 0.10 0.08 90 1011.5
20260507113049 10 198 3.2 6.4 0.00 0.10 0.08 89 1011.6
20260507111552 10 120 0.0 3.2 0.00 0.10 0.08 89 1011.5
20260507110048 10 219 1.6 19.3 0.00 0.10 0.08 89 1011.5
20260507104547 10 221 0.0 9.7 0.00 0.10 0.08 89 1011.4
20260507103046 10 133 1.6 4.8 0.00 0.10 0.08 91 1011.3
20260507101547 10 224 0.0 3.2 0.00 0.10 0.08 90 1011.1
20260507100044 10 141 0.0 6.4 0.00 0.10 0.08 91 1011.1
20260507093047 10 270 0.0 3.2 0.00 0.10 0.08 93 1011.9
20260507091544 10 104 1.6 6.4 0.03 0.10 0.08 93 1011.6
20260507091510 10 104 1.6 6.4 0.03 0.10 0.08 93 1011.6
20260507090038 10 37 0.0 1.6 0.05 0.10 0.08 92 1011.6
20260507090022 10 36 0.0 1.6 0.05 0.10 0.08 92 1011.5
20260507084608 10 6 0.0 3.2 0.05 0.10 0.08 92 1011.3
20260507083033 10 241 4.8 8.0 0.05 0.10 0.08 91 1010.9
20260507081529 10 136 3.2 4.8 0.03 0.08 0.05 91 1011.1
20260507080022 10 113 1.6 6.4 0.00 0.05 0.03 91 1011.6
20260507074515 10 249 0.0 1.6 0.03 0.05 0.03 91 1011.4
20260507073012 10 350 0.0 0.0 0.03 0.05 0.03 91 1011.4
20260507071510 10 262 1.6 3.2 0.03 0.05 0.03 90 1011.7
20260507070010 11 247 0.0 1.6 0.03 0.05 0.03 88 1011.4
20260507064502 11 139 0.0 1.6 0.00 0.03 0.00 85 1010.7
20260507063105 11 207 0.0 4.8 0.00 0.03 0.00 82 1010.5
20260507061554 11 135 0.0 1.6 0.03 0.03 0.00 80 1010.2
20260507060051 11 221 3.2 14.5 0.03 0.03 0.03 79 1009.9
20260507054552 11 128 4.8 9.7 0.03 0.03 0.03 80 1010.1
20260507053048 12 70 0.0 6.4 0.03 0.03 0.03 78 1011.1
20260507051647 14 27 3.2 16.1 0.00 0.00 0.00 64 1011.6
20260507050046 12 289 3.2 14.5 0.00 0.00 0.00 69 1010.9
20260507044545 11 242 0.0 0.0 0.00 0.00 0.00 77 1009.6
20260507043043 12 248 0.0 0.0 0.00 0.00 0.00 76 1009.6
20260507041542 12 248 0.0 0.0 0.00 0.00 0.00 74 1009.8
20260507040043 12 131 0.0 0.0 0.00 0.00 0.00 73 1009.7
20260507034540 13 131 0.0 0.0 0.00 0.00 0.00 72 1009.6
20260507033037 13 259 0.0 0.0 0.00 0.00 0.00 71 1009.6
20260507031535 14 257 0.0 0.0 0.00 0.00 0.00 66 1009.5
20260507030034 15 257 0.0 0.0 0.00 0.00 0.00 65 1009.4
20260507024532 15 250 0.0 0.0 0.00 0.00 0.00 61 1009.4
20260507023031 16 250 0.0 0.0 0.00 0.00 0.00 59 1009.5
20260507021533 16 162 0.0 3.2 0.00 0.00 0.00 56 1009.2
20260507020036 17 145 0.0 3.2 0.00 0.00 0.00 54 1009.3